• In Hungary
  • List of Countries
  • For 7 days
  • Water Temperature
  • Satellite Maps
  • Weather Map
  • News
  • Weather Widgets
  • user-avatar
    Login

    Hourly Weather Kon Tum

    Today, 18 January, Thursday

    Time Temperature Precipitation Wind Pressure Humidity
    00:00 +18°C° 0 mm 1 mps 709 mmHg 88%
    01:00 +18°C° 0 mm 1 mps 709 mmHg 89%
    02:00 +18°C° 0 mm 1 mps 709 mmHg 87%
    03:00 +18°C° 0 mm 1 mps 709 mmHg 84%
    04:00 +16°C° 0 mm 1 mps 709 mmHg 82%
    05:00 +18°C° 0 mm 1 mps 709 mmHg 79%
    06:00 +19°C° 0 mm 1 mps 709 mmHg 76%
    07:00 +19°C° 0 mm 1 mps 710 mmHg 73%
    08:00 +22°C° 0 mm 1 mps 710 mmHg 64%
    09:00 +25°C° 0 mm 1 mps 711 mmHg 55%
    10:00 +28°C° 0 mm 1 mps 711 mmHg 46%
    11:00 +29°C° 0 mm 1 mps 711 mmHg 43%
    12:00 +31°C° 0 mm 2 mps 711 mmHg 41%
    13:00 +32°C° 0 mm 2 mps 710 mmHg 39%
    14:00 +31°C° 0 mm 2 mps 710 mmHg 42%
    15:00 +30°C° 0 mm 2 mps 710 mmHg 44%
    16:00 +30°C° 0 mm 2 mps 709 mmHg 47%
    17:00 +27°C° 0 mm 2 mps 709 mmHg 56%
    18:00 +25°C° 0 mm 2 mps 709 mmHg 65%
    19:00 +21°C° 0 mm 2 mps 709 mmHg 74%
    20:00 +21°C° 0 mm 2 mps 710 mmHg 77%
    21:00 +20°C° 0 mm 2 mps 710 mmHg 80%
    22:00 +21°C° 0 mm 1 mps 710 mmHg 82%
    23:00 +20°C° 0 mm 1 mps 710 mmHg 82%

    Tomorrow, 19 January, Friday

    Time Temperature Precipitation Wind Pressure Humidity
    00:00 +20°C° 0 mm 1 mps 710 mmHg 83%
    01:00 +20°C° 0 mm 1 mps 710 mmHg 83%
    02:00 +20°C° 0 mm 1 mps 710 mmHg 83%
    03:00 +20°C° 0 mm 1 mps 710 mmHg 83%
    04:00 +20°C° 0 mm 1 mps 709 mmHg 84%
    05:00 +20°C° 0 mm 1 mps 710 mmHg 84%
    06:00 +20°C° 0 mm 2 mps 710 mmHg 84%
    07:00 +20°C° 0 mm 2 mps 710 mmHg 85%
    08:00 +23°C° 0 mm 2 mps 711 mmHg 77%
    09:00 +26°C° 0 mm 3 mps 711 mmHg 69%
    10:00 +28°C° 0 mm 3 mps 712 mmHg 61%
    11:00 +29°C° 0.1 mm 3 mps 712 mmHg 59%
    12:00 +29°C° 0.1 mm 3 mps 711 mmHg 57%
    13:00 +30°C° 0.1 mm 3 mps 711 mmHg 54%
    14:00 +30°C° 0.1 mm 3 mps 710 mmHg 56%
    15:00 +29°C° 0.1 mm 3 mps 710 mmHg 59%
    16:00 +28°C° 0.1 mm 3 mps 709 mmHg 61%
    17:00 +27°C° 0 mm 2 mps 709 mmHg 68%
    18:00 +25°C° 0 mm 2 mps 710 mmHg 76%
    19:00 +23°C° 0 mm 2 mps 710 mmHg 83%
    20:00 +21°C° 0 mm 2 mps 710 mmHg 86%
    21:00 +22°C° 0 mm 1 mps 710 mmHg 88%
    22:00 +21°C° 0 mm 1 mps 711 mmHg 90%
    23:00 +21°C° 0 mm 1 mps 710 mmHg 91%

    Day after tomorrow, 20 January, Saturday

    Time Temperature Precipitation Wind Pressure Humidity
    00:00 +21°C° 0 mm 1 mps 710 mmHg 91%
    01:00 +20°C° 0 mm 1 mps 710 mmHg 92%
    02:00 +20°C° 0 mm 1 mps 709 mmHg 92%
    03:00 +20°C° 0 mm 1 mps 709 mmHg 93%
    04:00 +20°C° 0 mm 1 mps 709 mmHg 93%
    05:00 +20°C° 0 mm 1 mps 709 mmHg 92%
    06:00 +21°C° 0 mm 1 mps 709 mmHg 90%
    07:00 +21°C° 0 mm 1 mps 710 mmHg 89%
    08:00 +23°C° 0 mm 2 mps 711 mmHg 80%
    09:00 +26°C° 0 mm 2 mps 711 mmHg 71%
    10:00 +28°C° 0 mm 3 mps 712 mmHg 63%
    11:00 +28°C° 0.1 mm 3 mps 711 mmHg 61%
    12:00 +29°C° 0.1 mm 3 mps 710 mmHg 59%
    13:00 +30°C° 0.1 mm 3 mps 710 mmHg 57%
    14:00 +29°C° 0.1 mm 2 mps 709 mmHg 60%
    15:00 +28°C° 0.1 mm 2 mps 709 mmHg 63%
    16:00 +28°C° 0.1 mm 2 mps 708 mmHg 66%
    17:00 +26°C° 0 mm 2 mps 708 mmHg 72%
    18:00 +25°C° 0 mm 2 mps 709 mmHg 79%
    19:00 +23°C° 0 mm 1 mps 709 mmHg 85%
    20:00 +23°C° 0 mm 1 mps 709 mmHg 87%
    21:00 +22°C° 0 mm 1 mps 710 mmHg 89%
    22:00 +22°C° 0 mm 1 mps 710 mmHg 91%
    23:00 +21°C° 0 mm 1 mps 710 mmHg 92%

    21 January, Sunday

    Time Temperature Precipitation Wind Pressure Humidity
    00:00 +21°C° 0 mm 1 mps 709 mmHg 92%
    01:00 +21°C° 0 mm 1 mps 709 mmHg 93%
    02:00 +20°C° 0 mm 1 mps 709 mmHg 93%
    03:00 +20°C° 0 mm 1 mps 708 mmHg 93%
    04:00 +20°C° 0 mm 1 mps 708 mmHg 93%
    05:00 +20°C° 0 mm 1 mps 708 mmHg 92%
    06:00 +20°C° 0 mm 1 mps 709 mmHg 91%
    07:00 +20°C° 0 mm 1 mps 709 mmHg 90%
    08:00 +23°C° 0 mm 1 mps 710 mmHg 79%
    09:00 +26°C° 0 mm 2 mps 710 mmHg 68%
    10:00 +28°C° 0 mm 2 mps 711 mmHg 58%
    11:00 +30°C° 0 mm 2 mps 710 mmHg 53%
    12:00 +31°C° 0 mm 2 mps 710 mmHg 49%
    13:00 +32°C° 0 mm 2 mps 709 mmHg 44%
    14:00 +31°C° 0 mm 2 mps 708 mmHg 49%
    15:00 +30°C° 0 mm 2 mps 708 mmHg 53%
    16:00 +29°C° 0 mm 2 mps 707 mmHg 58%
    17:00 +27°C° 0 mm 2 mps 708 mmHg 65%
    18:00 +26°C° 0 mm 2 mps 708 mmHg 72%
    19:00 +24°C° 0 mm 2 mps 709 mmHg 79%
    20:00 +23°C° 0 mm 1 mps 709 mmHg 82%
    21:00 +23°C° 0 mm 1 mps 709 mmHg 86%
    22:00 +22°C° 0 mm 1 mps 709 mmHg 89%
    23:00 +21°C° 0 mm 1 mps 709 mmHg 90%

    22 January, Monday

    Time Temperature Precipitation Wind Pressure Humidity
    00:00 +21°C° 0 mm 1 mps 709 mmHg 91%
    01:00 +21°C° 0 mm 1 mps 708 mmHg 92%
    02:00 +21°C° 0 mm 1 mps 708 mmHg 92%
    03:00 +20°C° 0 mm 1 mps 708 mmHg 92%
    04:00 +20°C° 0 mm 1 mps 708 mmHg 92%
    05:00 +21°C° 0 mm 1 mps 708 mmHg 90%
    06:00 +21°C° 0 mm 1 mps 709 mmHg 89%
    07:00 +21°C° 0 mm 1 mps 709 mmHg 87%
    08:00 +24°C° 0 mm 1 mps 710 mmHg 78%
    09:00 +26°C° 0 mm 2 mps 710 mmHg 69%
    10:00 +29°C° 0 mm 2 mps 711 mmHg 60%
    11:00 +29°C° 0.1 mm 2 mps 710 mmHg 60%
    12:00 +29°C° 0.1 mm 2 mps 709 mmHg 61%
    13:00 +29°C° 0.1 mm 2 mps 708 mmHg 61%
    14:00 +29°C° 0.2 mm 2 mps 708 mmHg 64%
    15:00 +28°C° 0.2 mm 2 mps 708 mmHg 66%
    16:00 +27°C° 0.2 mm 2 mps 707 mmHg 69%
    17:00 +26°C° 0.1 mm 2 mps 708 mmHg 75%
    18:00 +24°C° 0.1 mm 2 mps 708 mmHg 81%
    19:00 +23°C° 0.1 mm 1 mps 708 mmHg 87%
    20:00 +22°C° 0 mm 1 mps 709 mmHg 88%
    21:00 +22°C° 0 mm 1 mps 709 mmHg 90%
    22:00 +22°C° 0 mm 1 mps 709 mmHg 91%
    23:00 +21°C° 0 mm 1 mps 709 mmHg 92%

    23 January, Tuesday

    Time Temperature Precipitation Wind Pressure Humidity
    00:00 +21°C° 0 mm 1 mps 708 mmHg 93%
    01:00 +21°C° 0 mm 1 mps 708 mmHg 94%
    02:00 +21°C° 0 mm 1 mps 708 mmHg 94%
    03:00 +21°C° 0 mm 1 mps 708 mmHg 95%
    04:00 +21°C° 0 mm 1 mps 708 mmHg 95%
    05:00 +21°C° 0 mm 1 mps 708 mmHg 94%
    06:00 +21°C° 0 mm 1 mps 709 mmHg 93%
    07:00 +22°C° 0 mm 1 mps 709 mmHg 92%
    08:00 +24°C° 0 mm 1 mps 710 mmHg 82%
    09:00 +26°C° 0 mm 1 mps 710 mmHg 72%
    10:00 +29°C° 0 mm 1 mps 711 mmHg 62%
    11:00 +30°C° 0.2 mm 1 mps 710 mmHg 60%
    12:00 +31°C° 0.2 mm 2 mps 709 mmHg 57%
    13:00 +31°C° 0.2 mm 2 mps 708 mmHg 55%
    14:00 +30°C° 0.7 mm 2 mps 708 mmHg 61%
    15:00 +29°C° 0.7 mm 2 mps 708 mmHg 67%
    16:00 +28°C° 0.7 mm 2 mps 707 mmHg 73%
    17:00 +26°C° 0.5 mm 2 mps 708 mmHg 80%
    18:00 +25°C° 0.5 mm 1 mps 708 mmHg 87%
    19:00 +23°C° 0.5 mm 1 mps 708 mmHg 93%
    20:00 +23°C° 0 mm 1 mps 708 mmHg 94%
    21:00 +22°C° 0 mm 1 mps 709 mmHg 95%
    22:00 +22°C° 0 mm 1 mps 709 mmHg 96%
    23:00 +22°C° 0 mm 1 mps 709 mmHg 96%
    Show more